Powrót do katalogu

ION SCV-019

AktywnyNaukaSSO
NORAD 68435·PAYLOAD·🇮🇹 Italy

Wystrzelony Mar 30, 2026 z Vandenberg Space Force Base

Loading…

Następne Przeloty (najbliższe 24 godziny)

TLE

ŚwieżeSource: Space-Track

Epoka: Sep 14, 2026, 14:19 UTC

1 68435U 26067V   26257.59677996  .00003351  00000-0  15766-3 0  9997
2 68435  97.4649 215.0820 0011446  88.6262 271.6284 15.20201422 25526

Śledź ION SCV-019 w czasie rzeczywistym z AllMySat

Download on the App Store